Observation data for Snyder on 12/08/2018      Previous  Date       Current Mesonet Observations  Soil Data  Daily Summary Page  Observations in Plain Language
KSYS 080600Z 02009KT M01/M01 A3024 RMK A01 T10061007  RH  100%=      5-min Rain = 0
KSYS 080605Z 01009KT M01/M01 A3024 RMK A01 T10051007  RH  100%=      5-min Rain = 0.01
KSYS 080610Z 01010KT M01/M01 A3024 RMK A01 T10051007  RH  100%=      5-min Rain = 0
KSYS 080615Z 01011KT M01/M01 A3024 RMK A01 T10051007  RH  100%=      5-min Rain = 0.01
KSYS 080620Z 01011KT M01/M01 A3024 RMK A01 T10061007  RH  100%=      5-min Rain = 0
KSYS 080625Z 01010KT M01/M01 A3024 RMK A01 T10051007  RH  100%=      5-min Rain = 0.01
KSYS 080630Z 01010KT M01/M01 A3024 RMK A01 T10051007  RH  100%=      5-min Rain = 0.01
KSYS 080635Z 00011KT M01/M01 A3024 RMK A01 T10051007  RH  100%=      5-min Rain = 0.01
KSYS 080640Z 01011KT M01/M01 A3024 RMK A01 T10051007  RH  100%=      5-min Rain = 0.01
KSYS 080645Z 01010KT M01/M01 A3024 RMK A01 T10051007  RH  100%=      5-min Rain = 0.01
KSYS 080650Z 01011KT M01/M01 A3024 RMK A01 T10051006  RH  100%=      5-min Rain = 0.01
KSYS 080655Z 01011KT M01/M01 A3024 RMK A01 T10051007  RH  100%=      5-min Rain = 0.01
KSYS 080700Z 01011KT M01/M01 A3024 RMK A01 T10061007  RH  100%=      5-min Rain = 0.01
KSYS 080705Z 01010KT M01/M01 A3024 RMK A01 T10051007  RH  100%=      5-min Rain = 0.01
KSYS 080710Z 01010KT M01/M01 A3024 RMK A01 T10051007  RH  100%=      5-min Rain = 0.01
KSYS 080715Z 01010KT M01/M01 A3024 RMK A01 T10051007  RH  100%=      5-min Rain = 0.01
KSYS 080720Z 01010KT M01/M01 A3024 RMK A01 T10051006  RH  100%=      5-min Rain = 0
KSYS 080725Z 01011KT M01/M01 A3024 RMK A01 T10051007  RH  100%=      5-min Rain = 0.01
KSYS 080730Z 01011KT M01/M01 A3024 RMK A01 T10061007  RH  100%=      5-min Rain = 0
KSYS 080735Z 01011KT M01/M01 A3024 RMK A01 T10061007  RH  100%=      5-min Rain = 0.01
KSYS 080740Z 01011KT M01/M01 A3024 RMK A01 T10061007  RH  100%=      5-min Rain = 0
KSYS 080745Z 01011KT M01/M01 A3024 RMK A01 T10061008  RH  100%=      5-min Rain = 0
KSYS 080750Z 01011KT M01/M01 A3023 RMK A01 T10061008  RH  100%=      5-min Rain = 0.01
KSYS 080755Z 01009KT M01/M01 A3023 RMK A01 T10061007  RH  100%=      5-min Rain = 0
KSYS 080800Z 01010KT M01/M01 A3023 RMK A01 T10061007  RH  100%=      5-min Rain = 0
KSYS 080805Z 01010G15KT M01/M01 A3023 RMK A01 T10061008  RH  100%=      5-min Rain = 0.01
KSYS 080810Z 01010KT M01/M01 A3022 RMK A01 T10071008  RH  100%=      5-min Rain = 0
KSYS 080815Z 01011KT M01/M01 A3022 RMK A01 T10071008  RH  100%=      5-min Rain = 0.01
KSYS 080820Z 01009KT M01/M01 A3022 RMK A01 T10071008  RH  100%=      5-min Rain = 0.01
KSYS 080825Z 01009KT M01/M01 A3022 RMK A01 T10071008  RH  100%=      5-min Rain = 0.01
KSYS 080830Z 01008KT M01/M01 A3022 RMK A01 T10061008  RH  100%=      5-min Rain = 0
KSYS 080835Z 01008KT M01/M01 A3022 RMK A01 T10071008  RH  100%=      5-min Rain = 0.01
KSYS 080840Z 01009KT M01/M01 A3022 RMK A01 T10071008  RH  100%=      5-min Rain = 0
KSYS 080845Z 01008KT M01/M01 A3022 RMK A01 T10071009  RH  100%=      5-min Rain = 0
KSYS 080850Z 01008KT M01/M01 A3022 RMK A01 T10071009  RH  100%=      5-min Rain = 0.01
KSYS 080855Z 01008KT M01/M01 A3022 RMK A01 T10071009  RH  100%=      5-min Rain = 0
KSYS 080900Z 01007KT M01/M01 A3022 RMK A01 T10071009  RH  100%=      5-min Rain = 0
KSYS 080905Z 01007KT M01/M01 A3022 RMK A01 T10071008  RH  100%=      5-min Rain = 0
KSYS 080910Z 02008KT M01/M01 A3022 RMK A01 T10071009  RH  100%=      5-min Rain = 0.01
KSYS 080915Z 02007KT M01/M01 A3022 RMK A01 T10081009  RH  100%=      5-min Rain = 0
KSYS 080920Z 02007KT M01/M01 A3022 RMK A01 T10081009  RH  100%=      5-min Rain = 0
KSYS 080925Z 02007KT M01/M01 A3022 RMK A01 T10081009  RH  100%=      5-min Rain = 0
KSYS 080930Z 02007KT M01/M01 A3022 RMK A01 T10081009  RH  100%=      5-min Rain = 0
KSYS 080935Z 02007KT M01/M01 A3022 RMK A01 T10081009  RH  100%=      5-min Rain = 0.01
KSYS 080940Z 01006KT M01/M01 A3022 RMK A01 T10071009  RH  100%=      5-min Rain = 0.01
KSYS 080945Z 01006KT M01/M01 A3022 RMK A01 T10071009  RH  100%=      5-min Rain = 0.01
KSYS 080950Z 01006KT M01/M01 A3022 RMK A01 T10071008  RH  100%=      5-min Rain = 0
KSYS 080955Z 01005KT M01/M01 A3022 RMK A01 T10071009  RH  100%=      5-min Rain = 0
KSYS 081000Z 01005KT M01/M01 A3022 RMK A01 T10071009  RH  100%=      5-min Rain = 0.01
KSYS 081005Z 01005KT M01/M01 A3022 RMK A01 T10071008  RH  100%=      5-min Rain = 0.01
KSYS 081010Z 02004KT M01/M01 A3022 RMK A01 T10071008  RH  100%=      5-min Rain = 0
KSYS 081015Z 02004KT M01/M01 A3022 RMK A01 T10071008  RH  100%=      5-min Rain = 0.01
KSYS 081020Z 01004KT M01/M01 A3022 RMK A01 T10071008  RH  100%=      5-min Rain = 0
KSYS 081025Z 02004KT M01/M01 A3023 RMK A01 T10071008  RH  100%=      5-min Rain = 0
KSYS 081030Z 01004KT M01/M01 A3023 RMK A01 T10071008  RH  100%=      5-min Rain = 0
KSYS 081035Z 02004KT M01/M01 A3023 RMK A01 T10071008  RH  100%=      5-min Rain = 0
KSYS 081040Z 01004KT M01/M01 A3022 RMK A01 T10071008  RH  100%=      5-min Rain = 0.01
KSYS 081045Z 01003KT M01/M01 A3022 RMK A01 T10071008  RH  100%=      5-min Rain = 0
KSYS 081050Z 02004KT M01/M01 A3022 RMK A01 T10071008  RH  100%=      5-min Rain = 0
KSYS 081055Z 01004KT M01/M01 A3022 RMK A01 T10071008  RH  100%=      5-min Rain = 0
KSYS 081100Z 02004KT M01/M01 A3022 RMK A01 T10071008  RH  100%=      5-min Rain = 0
KSYS 081105Z 02004KT M01/M01 A3022 RMK A01 T10071008  RH  100%=      5-min Rain = 0
KSYS 081110Z 02003KT M01/M01 A3022 RMK A01 T10071008  RH  100%=      5-min Rain = 0
KSYS 081115Z 02003KT M01/M01 A3022 RMK A01 T10061008  RH  100%=      5-min Rain = 0.02
KSYS 081120Z 01003KT M01/M01 A3022 RMK A01 T10061008  RH  100%=      5-min Rain = 0.01
KSYS 081125Z 01003KT M01/M01 A3022 RMK A01 T10061007  RH  100%=      5-min Rain = 0
KSYS 081130Z 02003KT M01/M01 A3022 RMK A01 T10061008  RH  100%=      5-min Rain = 0.01
KSYS 081135Z 02003KT M01/M01 A3022 RMK A01 T10061008  RH  100%=      5-min Rain = 0.01
KSYS 081140Z 02003KT M01/M01 A3022 RMK A01 T10061007  RH  100%=      5-min Rain = 0.01
KSYS 081145Z 02003KT M01/M01 A3022 RMK A01 T10061007  RH  100%=      5-min Rain = 0.01
KSYS 081150Z 01003KT M01/M01 A3022 RMK A01 T10061007  RH  100%=      5-min Rain = 0.01
KSYS 081155Z 01003KT M01/M01 A3023 RMK A01 T10061007  RH  100%=      5-min Rain = 0
KSYS 081200Z 01003KT M01/M01 A3023 RMK A01 T10061007  RH  100%=      5-min Rain = 0.01
KSYS 081205Z 01003KT M01/M01 A3023 RMK A01 T10061008  RH  100%=      5-min Rain = 0
KSYS 081210Z 01003KT M01/M01 A3023 RMK A01 T10061008  RH  100%=      5-min Rain = 0.01
KSYS 081215Z 01003KT M01/M01 A3024 RMK A01 T10061008  RH  100%=      5-min Rain = 0
KSYS 081220Z 01003KT M01/M01 A3024 RMK A01 T10061008  RH  100%=      5-min Rain = 0
KSYS 081225Z 01003KT M01/M01 A3024 RMK A01 T10061008  RH  100%=      5-min Rain = 0
KSYS 081230Z 01003KT M01/M01 A3024 RMK A01 T10061008  RH  100%=      5-min Rain = 0.01
KSYS 081235Z 02003KT M01/M01 A3024 RMK A01 T10071008  RH  100%=      5-min Rain = 0
KSYS 081240Z 01003KT M01/M01 A3024 RMK A01 T10071008  RH  100%=      5-min Rain = 0
KSYS 081245Z 01004KT M01/M01 A3024 RMK A01 T10071009  RH  100%=      5-min Rain = 0
KSYS 081250Z 01004KT M01/M01 A3024 RMK A01 T10081009  RH  100%=      5-min Rain = 0
KSYS 081255Z 01003KT M01/M01 A3024 RMK A01 T10081009  RH  100%=      5-min Rain = 0
KSYS 081300Z 02003KT M01/M01 A3025 RMK A01 T10081010  RH  100%=      5-min Rain = 0
KSYS 081305Z 01004KT M01/M01 A3025 RMK A01 T10091010  RH  100%=      5-min Rain = 0
KSYS 081310Z 01004KT M01/M01 A3025 RMK A01 T10091011  RH  100%=      5-min Rain = 0
KSYS 081315Z 01004KT M01/M01 A3025 RMK A01 T10101011  RH  100%=      5-min Rain = 0
KSYS 081320Z 01004KT M01/M01 A3026 RMK A01 T10101012  RH  100%=      5-min Rain = 0
KSYS 081325Z 00004KT M01/M01 A3026 RMK A01 T10111012  RH  100%=      5-min Rain = 0
KSYS 081330Z 01003KT M01/M01 A3027 RMK A01 T10111013  RH  100%=      5-min Rain = 0
KSYS 081335Z 01003KT M01/M01 A3027 RMK A01 T10121013  RH  100%=      5-min Rain = 0
KSYS 081340Z 00003KT M01/M01 A3027 RMK A01 T10121013  RH  100%=      5-min Rain = 0
KSYS 081345Z 36003KT M01/M01 A3027 RMK A01 T10121013  RH  100%=      5-min Rain = 0
KSYS 081350Z 36003KT M01/M01 A3027 RMK A01 T10111013  RH  100%=      5-min Rain = 0
KSYS 081355Z 36003KT M01/M01 A3027 RMK A01 T10121013  RH  100%=      5-min Rain = 0
KSYS 081400Z 00004KT M01/M01 A3027 RMK A01 T10131014  RH  100%=      5-min Rain = 0
KSYS 081405Z 01004KT M01/M02 A3027 RMK A01 T10141015  RH  100%=      5-min Rain = 0
KSYS 081410Z 01004KT M01/M02 A3027 RMK A01 T10141015  RH  100%=      5-min Rain = 0
KSYS 081415Z 01004KT M02/M02 A3027 RMK A01 T10151016  RH  100%=      5-min Rain = 0
KSYS 081420Z 01004KT M02/M02 A3027 RMK A01 T10151016  RH  100%=      5-min Rain = 0
KSYS 081425Z 01004KT M02/M02 A3027 RMK A01 T10151016  RH  100%=      5-min Rain = 0
KSYS 081430Z 01004KT M02/M02 A3028 RMK A01 T10151016  RH  100%=      5-min Rain = 0
KSYS 081435Z 01004KT M01/M02 A3028 RMK A01 T10141016  RH  100%=      5-min Rain = 0
KSYS 081440Z 01004KT M01/M02 A3028 RMK A01 T10141015  RH  100%=      5-min Rain = 0
KSYS 081445Z 01004KT M01/M02 A3028 RMK A01 T10141015  RH  100%=      5-min Rain = 0
KSYS 081450Z 01003KT M01/M02 A3028 RMK A01 T10141015  RH  100%=      5-min Rain = 0
KSYS 081455Z 36003KT M01/M01 A3029 RMK A01 T10131014  RH  100%=      5-min Rain = 0
KSYS 081500Z 36004KT M01/M01 A3029 RMK A01 T10131014  RH  100%=      5-min Rain = 0
KSYS 081505Z 00004KT M01/M02 A3029 RMK A01 T10141015  RH  100%=      5-min Rain = 0
KSYS 081510Z 01004KT M02/M02 A3029 RMK A01 T10151016  RH  100%=      5-min Rain = 0
KSYS 081515Z 01004KT M02/M02 A3029 RMK A01 T10151016  RH  100%=      5-min Rain = 0
KSYS 081520Z 01004KT M02/M02 A303 RMK A01 T10151017  RH  100%=      5-min Rain = 0
KSYS 081525Z 36004KT M02/M02 A303 RMK A01 T10151016  RH  100%=      5-min Rain = 0
KSYS 081530Z 00004KT M02/M02 A303 RMK A01 T10151016  RH  100%=      5-min Rain = 0
KSYS 081535Z 00004KT M02/M02 A303 RMK A01 T10151016  RH  100%=      5-min Rain = 0
KSYS 081540Z 36004KT M01/M02 A303 RMK A01 T10141015  RH  100%=      5-min Rain = 0.01
KSYS 081545Z 00004KT M01/M02 A303 RMK A01 T10141015  RH  100%=      5-min Rain = 0
KSYS 081550Z 00004KT M01/M02 A303 RMK A01 T10131015  RH  100%=      5-min Rain = 0
KSYS 081555Z 36003KT M01/M01 A303 RMK A01 T10131014  RH  100%=      5-min Rain = 0
KSYS 081600Z 36004KT M01/M01 A3031 RMK A01 T10121013  RH  100%=      5-min Rain = 0
KSYS 081605Z 36004KT M01/M01 A3031 RMK A01 T10121014  RH  100%=      5-min Rain = 0.01
KSYS 081610Z 35004KT M01/M01 A3031 RMK A01 T10131014  RH  100%=      5-min Rain = 0
KSYS 081615Z 35003KT M01/M01 A3031 RMK A01 T10121013  RH  100%=      5-min Rain = 0
KSYS 081620Z 35004KT M01/M01 A3031 RMK A01 T10121013  RH  100%=      5-min Rain = 0.01
KSYS 081625Z 35004KT M01/M01 A3031 RMK A01 T10131014  RH  100%=      5-min Rain = 0
KSYS 081630Z 35004KT M01/M01 A3031 RMK A01 T10131014  RH  100%=      5-min Rain = 0.01
KSYS 081635Z 35004KT M01/M02 ANAN RMK A01 T10141015  RH  100%=      5-min Rain = 0
KSYS 081640Z 36004KT M01/M02 A3031 RMK A01 T10141015  RH  100%=      5-min Rain = 0.01
KSYS 081645Z 00004KT M01/M02 A3031 RMK A01 T10141015  RH  100%=      5-min Rain = 0.01
KSYS 081650Z 36004KT M01/M02 A3032 RMK A01 T10131015  RH  100%=      5-min Rain = 0
KSYS 081655Z 36004KT M01/M01 A3031 RMK A01 T10131014  RH  100%=      5-min Rain = 0.01
KSYS 081700Z 00004KT M01/M01 A3031 RMK A01 T10131014  RH  100%=      5-min Rain = 0.01
KSYS 081705Z 36004KT M01/M01 A3031 RMK A01 T10121013  RH  100%=      5-min Rain = 0.01
KSYS 081710Z 35003KT M01/M01 A3031 RMK A01 T10111013  RH  100%=      5-min Rain = 0.01
KSYS 081715Z 35004KT M01/M01 A3031 RMK A01 T10111012  RH  100%=      5-min Rain = 0
KSYS 081720Z 35004KT M01/M01 A3031 RMK A01 T10111013  RH  100%=      5-min Rain = 0.01
KSYS 081725Z 35004KT M01/M01 A3031 RMK A01 T10121013  RH  100%=      5-min Rain = 0.01
KSYS 081730Z 35004KT M01/M01 A3031 RMK A01 T10121013  RH  100%=      5-min Rain = 0.01
KSYS 081735Z 36004KT M01/M01 A3031 RMK A01 T10131014  RH  100%=      5-min Rain = 0.01
KSYS 081740Z 00004KT M01/M01 A3031 RMK A01 T10121013  RH  100%=      5-min Rain = 0.01
KSYS 081745Z 36003KT M01/M01 A3031 RMK A01 T10101012  RH  100%=      5-min Rain = 0.02
KSYS 081750Z 35004KT M01/M01 A303 RMK A01 T10101011  RH  100%=      5-min Rain = 0.02
KSYS 081755Z 35004KT M01/M01 A303 RMK A01 T10101011  RH  100%=      5-min Rain = 0.01
KSYS 081800Z 35004KT M01/M01 A303 RMK A01 T10101011  RH  100%=      5-min Rain = 0.02
KSYS 081805Z 35004KT M01/M01 A303 RMK A01 T10101011  RH  100%=      5-min Rain = 0.01
KSYS 081810Z 35004KT M01/M01 A303 RMK A01 T10091011  RH  100%=      5-min Rain = 0.01
KSYS 081815Z 35004KT M01/M01 A303 RMK A01 T10091011  RH  100%=      5-min Rain = 0.02
KSYS 081820Z 35004KT M01/M01 A303 RMK A01 T10091011  RH  100%=      5-min Rain = 0.01
KSYS 081825Z 35004KT M01/M01 A303 RMK A01 T10091010  RH  100%=      5-min Rain = 0.02
KSYS 081830Z 34004KT M01/M01 A303 RMK A01 T10091010  RH  100%=      5-min Rain = 0
KSYS 081835Z 34004KT M01/M01 A303 RMK A01 T10091011  RH  100%=      5-min Rain = 0.01
KSYS 081840Z 34003KT M01/M01 A3029 RMK A01 T10091011  RH  100%=      5-min Rain = 0.01
KSYS 081845Z 34004KT M01/M01 A3029 RMK A01 T10101011  RH  100%=      5-min Rain = 0.01
KSYS 081850Z 34003KT M01/M01 A3029 RMK A01 T10101011  RH  100%=      5-min Rain = 0.01
KSYS 081855Z 35004KT M01/M01 A3029 RMK A01 T10101012  RH  100%=      5-min Rain = 0
KSYS 081900Z 35003KT M01/M01 A3029 RMK A01 T10101011  RH  100%=      5-min Rain = 0.01
KSYS 081905Z 34003KT M01/M01 A3029 RMK A01 T10101011  RH  100%=      5-min Rain = 0.01
KSYS 081910Z 34004KT M01/M01 A3029 RMK A01 T10101011  RH  100%=      5-min Rain = 0.01
KSYS 081915Z 34004KT M01/M01 A3029 RMK A01 T10101011  RH  100%=      5-min Rain = 0
KSYS 081920Z 34003KT M01/M01 A3028 RMK A01 T10101011  RH  100%=      5-min Rain = 0
KSYS 081925Z 35003KT M01/M01 ANAN RMK A01 T10091011  RH  100%=      5-min Rain = 0
KSYS 081930Z 34004KT M01/M01 A3028 RMK A01 T10091011  RH  100%=      5-min Rain = 0
KSYS 081935Z 34004KT M01/M01 A3028 RMK A01 T10101011  RH  100%=      5-min Rain = 0
KSYS 081940Z 34003KT M01/M01 A3028 RMK A01 T10101011  RH  100%=      5-min Rain = 0
KSYS 081945Z 34004KT M01/M01 A3028 RMK A01 T10101011  RH  100%=      5-min Rain = 0
KSYS 081950Z 34004KT M01/M01 A3028 RMK A01 T10091011  RH  100%=      5-min Rain = 0
KSYS 081955Z 34003KT M01/M01 A3027 RMK A01 T10091011  RH  100%=      5-min Rain = 0
KSYS 082000Z 35003KT M01/M01 A3027 RMK A01 T10091010  RH  100%=      5-min Rain = 0
KSYS 082005Z 34003KT M01/M01 A3026 RMK A01 T10081010  RH  100%=      5-min Rain = 0
KSYS 082010Z 34003KT M01/M01 A3027 RMK A01 T10091010  RH  100%=      5-min Rain = 0
KSYS 082015Z 34003KT M01/M01 A3026 RMK A01 T10091010  RH  100%=      5-min Rain = 0
KSYS 082020Z 34003KT M01/M01 A3026 RMK A01 T10091010  RH  100%=      5-min Rain = 0
KSYS 082025Z 35003KT M01/M01 A3026 RMK A01 T10091010  RH  100%=      5-min Rain = 0
KSYS 082030Z 35003KT M01/M01 A3026 RMK A01 T10091010  RH  100%=      5-min Rain = 0
KSYS 082035Z 36003KT M01/M01 A3026 RMK A01 T10091010  RH  100%=      5-min Rain = 0
KSYS 082040Z 35003KT M01/M01 A3026 RMK A01 T10091010  RH  100%=      5-min Rain = 0
KSYS 082045Z 35003KT M01/M01 A3026 RMK A01 T10091010  RH  100%=      5-min Rain = 0
KSYS 082050Z 34003KT M01/M01 A3026 RMK A01 T10091010  RH  100%=      5-min Rain = 0
KSYS 082055Z 35002KT M01/M01 A3026 RMK A01 T10091010  RH  100%=      5-min Rain = 0
KSYS 082100Z 35002KT M01/M01 A3026 RMK A01 T10091010  RH  100%=      5-min Rain = 0
KSYS 082105Z 34002KT M01/M01 A3026 RMK A01 T10081010  RH  100%=      5-min Rain = 0
KSYS 082110Z 34003KT M01/M01 A3026 RMK A01 T10081009  RH  100%=      5-min Rain = 0
KSYS 082115Z 35003KT M01/M01 A3026 RMK A01 T10071009  RH  100%=      5-min Rain = 0
KSYS 082120Z 34002KT M01/M01 A3026 RMK A01 T10071008  RH  100%=      5-min Rain = 0
KSYS 082125Z 34003KT M01/M01 A3026 RMK A01 T10071009  RH  100%=      5-min Rain = 0
KSYS 082130Z 35002KT M01/M01 A3026 RMK A01 T10071009  RH  100%=      5-min Rain = 0
KSYS 082135Z 34003KT M01/M01 A3026 RMK A01 T10071008  RH  100%=      5-min Rain = 0
KSYS 082140Z 34003KT M01/M01 A3026 RMK A01 T10071008  RH  100%=      5-min Rain = 0
KSYS 082145Z 34003KT M01/M01 A3026 RMK A01 T10071008  RH  100%=      5-min Rain = 0
KSYS 082150Z 34003KT M01/M01 A3025 RMK A01 T10071008  RH  100%=      5-min Rain = 0
KSYS 082155Z 35003KT M01/M01 A3025 RMK A01 T10071008  RH  100%=      5-min Rain = 0
KSYS 082200Z 34002KT M01/M01 A3025 RMK A01 T10061008  RH  100%=      5-min Rain = 0
KSYS 082205Z 34003KT M01/M01 A3025 RMK A01 T10071008  RH  100%=      5-min Rain = 0
KSYS 082210Z 34002KT M01/M01 A3025 RMK A01 T10071008  RH  100%=      5-min Rain = 0
KSYS 082215Z 34002KT M01/M01 A3025 RMK A01 T10061008  RH  100%=      5-min Rain = 0
KSYS 082220Z 34002KT M01/M01 A3025 RMK A01 T10051007  RH  100%=      5-min Rain = 0
KSYS 082225Z 34002KT M01/M01 A3025 RMK A01 T10051007  RH  100%=      5-min Rain = 0
KSYS 082230Z 35002KT M01/M01 A3026 RMK A01 T10051006  RH  100%=      5-min Rain = 0
KSYS 082235Z 35002KT M00/M01 A3025 RMK A01 T10041006  RH  100%=      5-min Rain = 0
KSYS 082240Z 36002KT M01/M01 A3025 RMK A01 T10051006  RH  100%=      5-min Rain = 0
KSYS 082245Z 35002KT M01/M01 A3026 RMK A01 T10051007  RH  100%=      5-min Rain = 0
KSYS 082250Z 35002KT M01/M01 A3026 RMK A01 T10051007  RH  100%=      5-min Rain = 0
KSYS 082255Z 35002KT M01/M01 A3026 RMK A01 T10051007  RH  100%=      5-min Rain = 0
KSYS 082300Z 34002KT M01/M01 A3026 RMK A01 T10051006  RH  100%=      5-min Rain = 0
KSYS 082305Z 34002KT M01/M01 A3026 RMK A01 T10051006  RH  100%=      5-min Rain = 0
KSYS 082310Z 34002KT M01/M01 A3027 RMK A01 T10051006  RH  100%=      5-min Rain = 0
KSYS 082315Z 34003KT M00/M01 A3027 RMK A01 T10041006  RH  100%=      5-min Rain = 0
KSYS 082320Z 34003KT M00/M01 A3027 RMK A01 T10041006  RH  100%=      5-min Rain = 0
KSYS 082325Z 34002KT M00/M01 ANAN RMK A01 T10041006  RH  100%=      5-min Rain = 0
KSYS 082330Z 35003KT M01/M01 A3027 RMK A01 T10051007  RH  100%=      5-min Rain = 0
KSYS 082335Z 35002KT M01/M01 A3027 RMK A01 T10071008  RH  100%=      5-min Rain = 0
KSYS 082340Z 34002KT M01/M01 A3027 RMK A01 T10081010  RH  100%=      5-min Rain = 0
KSYS 082345Z 34003KT M01/M01 A3027 RMK A01 T10091011  RH  100%=      5-min Rain = 0
KSYS 082350Z 35002KT M01/M01 A3027 RMK A01 T10101011  RH  100%=      5-min Rain = 0
KSYS 082355Z 36002KT M01/M01 A3027 RMK A01 T10111012  RH  100%=      5-min Rain = 0
KSYS 090000Z 00002KT M01/M01 A3027 RMK A01 T10111012  RH  100%=      5-min Rain = 0
KSYS 090005Z 00002KT M01/M01 A3026 RMK A01 T10111012  RH  100%=      5-min Rain = 0
KSYS 090010Z 01002KT M01/M01 A3026 RMK A01 T10111012  RH  100%=      5-min Rain = 0
KSYS 090015Z 00002KT M01/M01 A3026 RMK A01 T10111012  RH  100%=      5-min Rain = 0
KSYS 090020Z 00002KT M01/M01 A3026 RMK A01 T10111012  RH  100%=      5-min Rain = 0
KSYS 090025Z 36002KT M01/M01 A3027 RMK A01 T10111012  RH  100%=      5-min Rain = 0
KSYS 090030Z 35002KT M01/M01 A3027 RMK A01 T10111013  RH  100%=      5-min Rain = 0
KSYS 090035Z 34002KT M01/M01 A3027 RMK A01 T10121013  RH  100%=      5-min Rain = 0
KSYS 090040Z 33002KT M01/M01 A3027 RMK A01 T10121013  RH  100%=      5-min Rain = 0
KSYS 090045Z 32002KT M01/M01 A3027 RMK A01 T10121013  RH  100%=      5-min Rain = 0
KSYS 090050Z 32002KT M01/M01 A3027 RMK A01 T10121013  RH  100%=      5-min Rain = 0
KSYS 090055Z 32001KT M01/M01 A3028 RMK A01 T10121013  RH  100%=      5-min Rain = 0
KSYS 090100Z 32001KT M01/M01 A3028 RMK A01 T10131014  RH  100%=      5-min Rain = 0
KSYS 090105Z 33001KT M01/M01 A3028 RMK A01 T10131014  RH  100%=      5-min Rain = 0
KSYS 090110Z 33002KT M01/M01 A3028 RMK A01 T10131014  RH  100%=      5-min Rain = 0
KSYS 090115Z 33001KT M01/M01 A3028 RMK A01 T10121014  RH  100%=      5-min Rain = 0
KSYS 090120Z 33002KT M01/M01 A3028 RMK A01 T10121013  RH  100%=      5-min Rain = 0
KSYS 090125Z 31002KT M01/M01 A3028 RMK A01 T10121013  RH  100%=      5-min Rain = 0
KSYS 090130Z 30002KT M01/M01 A3028 RMK A01 T10121013  RH  100%=      5-min Rain = 0
KSYS 090135Z 30002KT M01/M01 A3028 RMK A01 T10131014  RH  100%=      5-min Rain = 0
KSYS 090140Z 30002KT M01/M01 A3028 RMK A01 T10131014  RH  100%=      5-min Rain = 0
KSYS 090145Z 30002KT M01/M01 A3028 RMK A01 T10131014  RH  100%=      5-min Rain = 0
KSYS 090150Z 30001KT M01/M02 A3028 RMK A01 T10141015  RH  100%=      5-min Rain = 0
KSYS 090155Z 29001KT M01/M02 A3028 RMK A01 T10141015  RH  100%=      5-min Rain = 0
KSYS 090200Z 31001KT M01/M02 A3028 RMK A01 T10141016  RH  100%=      5-min Rain = 0
KSYS 090205Z 31001KT M02/M02 A3028 RMK A01 T10151016  RH  100%=      5-min Rain = 0
KSYS 090210Z 30002KT M02/M02 A3028 RMK A01 T10151016  RH  100%=      5-min Rain = 0
KSYS 090215Z 30002KT M01/M02 A3029 RMK A01 T10141016  RH  100%=      5-min Rain = 0
KSYS 090220Z 30002KT M01/M02 A3029 RMK A01 T10141016  RH  100%=      5-min Rain = 0
KSYS 090225Z 31002KT M01/M02 A3029 RMK A01 T10141015  RH  100%=      5-min Rain = 0
KSYS 090230Z 31002KT M01/M02 A3029 RMK A01 T10141016  RH  100%=      5-min Rain = 0
KSYS 090235Z 31002KT M02/M02 A303 RMK A01 T10151016  RH  100%=      5-min Rain = 0
KSYS 090240Z 32002KT M02/M02 A303 RMK A01 T10151016  RH  100%=      5-min Rain = 0
KSYS 090245Z 33002KT M02/M02 A303 RMK A01 T10151017  RH  100%=      5-min Rain = 0
KSYS 090250Z 33002KT M02/M02 A303 RMK A01 T10161017  RH  100%=      5-min Rain = 0
KSYS 090255Z 33002KT M02/M02 A303 RMK A01 T10161017  RH  100%=      5-min Rain = 0
KSYS 090300Z 33002KT M02/M02 A303 RMK A01 T10161017  RH  100%=      5-min Rain = 0
KSYS 090305Z 33002KT M02/M02 A303 RMK A01 T10161018  RH  100%=      5-min Rain = 0
KSYS 090310Z 32002KT M02/M02 A303 RMK A01 T10161018  RH  100%=      5-min Rain = 0
KSYS 090315Z 32002KT M02/M02 A303 RMK A01 T10161017  RH  100%=      5-min Rain = 0
KSYS 090320Z 32002KT M02/M02 A303 RMK A01 T10161017  RH  100%=      5-min Rain = 0
KSYS 090325Z 32002KT M02/M02 A303 RMK A01 T10161017  RH  100%=      5-min Rain = 0
KSYS 090330Z 32002KT M02/M02 A303 RMK A01 T10171018  RH  100%=      5-min Rain = 0
KSYS 090335Z 32002KT M02/M02 A303 RMK A01 T10171018  RH  100%=      5-min Rain = 0
KSYS 090340Z 32002KT M02/M02 A303 RMK A01 T10171018  RH  100%=      5-min Rain = 0
KSYS 090345Z 32002KT M02/M02 A303 RMK A01 T10171018  RH  100%=      5-min Rain = 0
KSYS 090350Z 31002KT M02/M02 A303 RMK A01 T10171018  RH  100%=      5-min Rain = 0
KSYS 090355Z 31002KT M02/M02 A303 RMK A01 T10171019  RH  100%=      5-min Rain = 0
KSYS 090400Z 31002KT M02/M02 A303 RMK A01 T10171018  RH  100%=      5-min Rain = 0
KSYS 090405Z 31002KT M02/M02 A303 RMK A01 T10171018  RH  100%=      5-min Rain = 0
KSYS 090410Z 32002KT M02/M02 A303 RMK A01 T10171018  RH  100%=      5-min Rain = 0
KSYS 090415Z 32002KT M02/M02 A303 RMK A01 T10171018  RH  100%=      5-min Rain = 0
KSYS 090420Z 32002KT M02/M02 A303 RMK A01 T10171018  RH  100%=      5-min Rain = 0
KSYS 090425Z 32002KT M02/M02 A303 RMK A01 T10181019  RH  100%=      5-min Rain = 0
KSYS 090430Z 31002KT M02/M02 A3031 RMK A01 T10181020  RH  100%=      5-min Rain = 0
KSYS 090435Z 30002KT M02/M02 A3031 RMK A01 T10191020  RH  100%=      5-min Rain = 0
KSYS 090440Z 29002KT M02/M02 A3031 RMK A01 T10181019  RH  100%=      5-min Rain = 0
KSYS 090445Z 30002KT M02/M02 A3031 RMK A01 T10181019  RH  100%=      5-min Rain = 0
KSYS 090450Z 30002KT M02/M02 A3031 RMK A01 T10181020  RH  100%=      5-min Rain = 0
KSYS 090455Z 30002KT M02/M02 A3031 RMK A01 T10191020  RH  100%=      5-min Rain = 0
KSYS 090500Z 31003KT M02/M02 A303 RMK A01 T10191020  RH  100%=      5-min Rain = 0
KSYS 090505Z 31003KT M02/M02 A303 RMK A01 T10191020  RH  100%=      5-min Rain = 0
KSYS 090510Z 31003KT M02/M02 A303 RMK A01 T10181020  RH  100%=      5-min Rain = 0
KSYS 090515Z 32002KT M02/M02 A303 RMK A01 T10181020  RH  100%=      5-min Rain = 0
KSYS 090520Z 31002KT M02/M02 A303 RMK A01 T10191020  RH  100%=      5-min Rain = 0
KSYS 090525Z 31002KT M02/M02 A303 RMK A01 T10191020  RH  100%=      5-min Rain = 0
KSYS 090530Z 31002KT M02/M02 A3031 RMK A01 T10191020  RH  100%=      5-min Rain = 0
KSYS 090535Z 31002KT M02/M02 A3031 RMK A01 T10191020  RH  100%=      5-min Rain = 0
KSYS 090540Z 31002KT M02/M02 A3031 RMK A01 T10191020  RH  100%=      5-min Rain = 0
KSYS 090545Z 31002KT M02/M02 A303 RMK A01 T10191021  RH  100%=      5-min Rain = 0
KSYS 090550Z 31002KT M02/M02 A303 RMK A01 T10201021  RH  100%=      5-min Rain = 0
KSYS 090555Z 31002KT M02/M02 A303 RMK A01 T10201021  RH  100%=      5-min Rain = 0

Page generated in 0.0139 seconds.